Tracking 30701 objects as of 14-Jun-2025
HD Live streaming from Space Station
objects crossing your sky now

ONEWEB-0639

Track ONEWEB-0639 now!
10-day predictions
ONEWEB-0639 is classified as:


NORAD ID: 55803
Int'l Code: 2023-029H
Perigee: 1,191.1 km
Apogee: 1,194.7 km
Inclination: 87.9 °
Period: 109.1 minutes
Semi major axis: 7563 km
RCS: Unknown
Launch date: March 9, 2023
Source: United Kingdom (UK)
Launch site: AIR FORCE EASTERN TEST RANGE (AFETR)
Your satellite tracking list
Your tracking list is empty




NASA's NSSDC Master Catalog

Two Line Element Set (TLE):
1 55803U 23029H   25164.86556038  .00000074  00000-0  15195-3 0  9991
2 55803  87.9221  18.2056 0002399 114.6760 245.4623 13.19726505110324
Source of the keplerian elements: AFSPC